Location: Malanoce
(44.2500°N, 7.4667°E)
Time: 22:53:58
(UTC+00:00)

ATLAS 5 CENTAUR R/B - Pass Details

Date: 17 November 2025
Orbit: 373 x 1090 km, 63.3° (Epoch: 09 December)

Event Time Altitude Azimuth Distance (km) Brightness Sun altitude
Rises 16:55:20 0° 319° (NW) 2,792 5.3 -9.8°
Reaches altitude 10° 16:57:23 10° 316° (NW) 1,990 4.5 -10.2°
Maximum altitude 17:01:52 62° 236° (SW) 808 2.4 -10.9°
Drops below altitude 10° 17:07:25 10° 157° (SSE) 2,455 4.5 -11.9°
Sets 17:10:10 0° 154° (SSE) 3,505 5.3 -12.4°
